Weather History for KMCD - September, 2013

Change the Weather History Date:

Thursday, September 12, 2013

  Actual Average Record
Temperature  
Mean Temperature 58 °F -  
Max Temperature 65 °F 67 °F 82 °F (1982)
Min Temperature 50 °F 53 °F 41 °F (1975)
Degree Days  
Heating Degree Days 8    
Growing Degree Days 8 (Base 50)    
Moisture  
Dew Point 53 °F    
Average Humidity 83    
Maximum Humidity 99    
Minimum Humidity 65    
Precipitation  
Precipitation 0.01 in - - ()
Sea Level Pressure  
Sea Level Pressure 29.95 in    
Wind  
Wind Speed 9 mph (NW)    
Max Wind Speed 17 mph    
Max Gust Speed 29 mph    
Visibility 10 miles    
Events      
Averages and records for this station are not official NWS values.
T = Trace of Precipitation, MM = Missing Value Source: NWS Daily Summary

Daily Weather History Graph

Daily Weather History Graph

Search for Another Location

Airport or City:

Trip Planner

Search our weather history database for the weather conditions in past years. The results will help you decide how hot, cold, wet, or windy it might be!

Date:

Astronomy

Sep. 12, 2013 Rise Set
Actual Time 7:13 AM EDT 7:55 PM EDT
Civil Twilight 6:43 AM EDT 8:25 PM EDT
Nautical Twilight 6:07 AM EDT 9:00 PM EDT
Astronomical Twilight 5:30 AM EDT 9:38 PM EDT
Moon 3:00 PM EDT (9/12) No Moon Set
Length of Visible Light 13h 41m
Length of Day
12h 41m
Waxing Crescent, 50% of the Moon is Illuminated
Sep 12
Waxing Crescent
Sep 12
First Quarter
Sep 19
Full
Sep 26
Last Quarter
Oct 4
New

Hourly Weather History & Observations

Time (EDT) Temp. Dew Point Humidity Pressure Visibility Wind Dir Wind Speed Gust Speed Precip Events Conditions
12:16 AM 65.5 °F 64.9 °F 98% 29.88 in 7.0 mi WSW 3.5 mph - N/A   Overcast
12:36 AM 65.1 °F 64.8 °F 99% 29.88 in 7.0 mi WNW 5.8 mph - N/A   Overcast
12:55 AM 64.9 °F 64.6 °F 99% 29.87 in 7.0 mi WNW 5.8 mph - N/A   Mostly Cloudy
1:16 AM 64.8 °F 64.4 °F 99% 29.87 in 7.0 mi NW 4.6 mph - N/A   Overcast
1:36 AM 63.9 °F 63.5 °F 99% 29.87 in 10.0 mi NW 8.1 mph - N/A   Overcast
1:55 AM 63.0 °F 62.2 °F 97% 29.88 in 10.0 mi NW 5.8 mph - N/A   Overcast
2:16 AM 62.6 °F 62.1 °F 98% 29.88 in 7.0 mi WNW 9.2 mph - N/A   Overcast
2:36 AM 61.9 °F 61.5 °F 99% 29.88 in 10.0 mi WNW 8.1 mph - N/A   Mostly Cloudy
2:55 AM 61.5 °F 60.8 °F 97% 29.88 in 10.0 mi WNW 10.4 mph 16.1 mph N/A   Overcast
3:16 AM 60.8 °F 60.1 °F 97% 29.88 in 10.0 mi WNW 9.2 mph 16.1 mph 0.01 in   Scattered Clouds
3:36 AM 60.4 °F 59.9 °F 98% 29.88 in 10.0 mi WNW 5.8 mph - 0.01 in   Scattered Clouds
3:56 AM 60.1 °F 59.7 °F 99% 29.88 in 10.0 mi WNW 9.2 mph - 0.01 in   Scattered Clouds
4:16 AM 59.9 °F 59.4 °F 98% 29.88 in 10.0 mi WNW 10.4 mph - N/A   Scattered Clouds
4:35 AM 60.1 °F 59.5 °F 98% 29.88 in 10.0 mi NW 6.9 mph - N/A   Overcast
4:49 AM 60.1 °F 59.7 °F 99% 29.88 in 10.0 mi WNW 8.1 mph - N/A   Overcast
5:16 AM 60.1 °F 59.4 °F 97% 29.88 in 10.0 mi NW 9.2 mph - N/A   Overcast
5:35 AM 59.9 °F 59.0 °F 97% 29.88 in 10.0 mi WNW 6.9 mph - N/A   Mostly Cloudy
5:56 AM 59.5 °F 59.0 °F 98% 29.88 in 10.0 mi WNW 5.8 mph - N/A   Clear
6:16 AM 59.2 °F 58.6 °F 98% 29.88 in 10.0 mi WNW 5.8 mph - N/A   Clear
6:35 AM 59.7 °F 59.0 °F 97% 29.89 in 10.0 mi NW 8.1 mph - N/A   Mostly Cloudy
6:56 AM 59.4 °F 58.6 °F 97% 29.89 in 10.0 mi NW 6.9 mph - N/A   Overcast
7:16 AM 59.4 °F 58.3 °F 96% 29.90 in 10.0 mi NW 4.6 mph 17.3 mph N/A   Overcast
7:35 AM 59.2 °F 58.5 °F 97% 29.90 in 10.0 mi NW 3.5 mph - N/A   Overcast
7:56 AM 59.0 °F 58.3 °F 97% 29.91 in 10.0 mi NW 6.9 mph - N/A   Overcast
8:15 AM 58.6 °F 57.4 °F 96% 29.92 in 10.0 mi NNW 8.1 mph - N/A   Overcast
8:36 AM 58.5 °F 56.8 °F 94% 29.92 in 10.0 mi NW 5.8 mph 16.1 mph N/A   Overcast
8:56 AM 59.0 °F 57.0 °F 93% 29.92 in 10.0 mi WNW 4.6 mph - N/A   Overcast
9:15 AM 59.2 °F 57.0 °F 93% 29.92 in 10.0 mi NW 6.9 mph - N/A   Mostly Cloudy
9:36 AM 60.3 °F 56.1 °F 86% 29.93 in 10.0 mi NW 9.2 mph - N/A   Scattered Clouds
9:56 AM 60.3 °F 53.2 °F 78% 29.93 in 10.0 mi NNW 10.4 mph 19.6 mph N/A   Clear
10:15 AM 59.9 °F 52.7 °F 77% 29.94 in 10.0 mi NNW 12.7 mph 20.7 mph N/A   Scattered Clouds
10:36 AM 60.8 °F 51.6 °F 72% 29.94 in 10.0 mi NW 9.2 mph 19.6 mph N/A   Scattered Clouds
10:56 AM 59.9 °F 50.7 °F 72% 29.95 in 10.0 mi NW 17.3 mph 25.3 mph N/A   Mostly Cloudy
11:16 AM 61.2 °F 50.2 °F 67% 29.95 in 10.0 mi NW 15.0 mph 24.2 mph N/A   Mostly Cloudy
11:36 AM 60.8 °F 49.6 °F 67% 29.95 in 10.0 mi WNW 10.4 mph 24.2 mph N/A   Overcast
11:56 AM 61.3 °F 50.4 °F 67% 29.95 in 10.0 mi NW 13.8 mph 21.9 mph N/A   Overcast
12:16 PM 58.5 °F 48.9 °F 71% 29.96 in 10.0 mi NW 12.7 mph 28.8 mph N/A   Mostly Cloudy
12:36 PM 59.5 °F 49.5 °F 69% 29.97 in 10.0 mi West 15.0 mph 21.9 mph N/A   Mostly Cloudy
12:56 PM 59.0 °F 49.5 °F 71% 29.97 in 10.0 mi WNW 15.0 mph 20.7 mph N/A   Overcast
1:16 PM 59.7 °F 49.1 °F 68% 29.97 in 10.0 mi WNW 16.1 mph 23.0 mph N/A   Overcast
1:36 PM 59.9 °F 48.4 °F 66% 29.97 in 10.0 mi NW 9.2 mph 20.7 mph N/A   Overcast
1:56 PM 58.5 °F 48.2 °F 69% 29.98 in 10.0 mi NW 10.4 mph 21.9 mph N/A   Overcast
2:16 PM 60.1 °F 48.9 °F 67% 29.98 in 10.0 mi NNW 15.0 mph 21.9 mph N/A   Overcast
2:36 PM 59.2 °F 48.2 °F 67% 29.98 in 10.0 mi NW 10.4 mph 17.3 mph N/A   Overcast
2:56 PM 58.8 °F 48.6 °F 69% 29.98 in 10.0 mi NW 16.1 mph 21.9 mph N/A   Overcast
3:16 PM 57.4 °F 48.7 °F 73% 29.98 in 10.0 mi NW 13.8 mph 21.9 mph N/A   Overcast
3:36 PM 57.2 °F 48.6 °F 73% 29.98 in 10.0 mi NNW 12.7 mph 21.9 mph N/A   Overcast
3:56 PM 58.3 °F 48.0 °F 69% 29.98 in 10.0 mi NNW 11.5 mph 19.6 mph N/A   Overcast
4:16 PM 58.6 °F 47.5 °F 66% 29.98 in 10.0 mi NNW 11.5 mph 18.4 mph N/A   Overcast
4:36 PM 57.6 °F 45.9 °F 65% 29.98 in 10.0 mi NNW 15.0 mph 23.0 mph N/A   Overcast
4:56 PM 57.6 °F 46.4 °F 66% 29.98 in 10.0 mi NNW 11.5 mph 23.0 mph N/A   Overcast
5:16 PM 57.7 °F 45.9 °F 65% 29.98 in 10.0 mi NW 15.0 mph 24.2 mph N/A   Mostly Cloudy
5:36 PM 56.8 °F 45.7 °F 66% 29.98 in 10.0 mi NW 13.8 mph 19.6 mph N/A   Overcast
5:56 PM 56.3 °F 46.6 °F 70% 29.99 in 10.0 mi NNW 13.8 mph 19.6 mph N/A   Overcast
6:16 PM 55.6 °F 46.4 °F 71% 29.99 in 10.0 mi NNW 12.7 mph 21.9 mph N/A   Overcast
6:36 PM 54.9 °F 46.0 °F 72% 30.00 in 10.0 mi NNW 13.8 mph 23.0 mph N/A   Overcast
6:56 PM 54.5 °F 46.0 °F 73% 30.00 in 10.0 mi NNW 15.0 mph 23.0 mph N/A   Overcast
7:16 PM 54.1 °F 46.0 °F 74% 30.01 in 10.0 mi NNW 12.7 mph 23.0 mph N/A   Overcast
7:36 PM 53.4 °F 45.7 °F 75% 30.01 in 10.0 mi NNW 12.7 mph 21.9 mph N/A   Overcast
7:56 PM 53.1 °F 45.5 °F 75% 30.02 in 10.0 mi NW 16.1 mph 23.0 mph N/A   Overcast
8:16 PM 52.9 °F 45.7 °F 77% 30.02 in 10.0 mi NNW 13.8 mph 18.4 mph N/A   Overcast
8:37 PM 52.3 °F 45.3 °F 77% 30.02 in 10.0 mi NNW 13.8 mph 23.0 mph N/A   Overcast
8:56 PM 52.2 °F 45.9 °F 79% 30.03 in 10.0 mi NW 13.8 mph 20.7 mph N/A   Overcast
9:16 PM 51.8 °F 46.0 °F 81% 30.04 in 10.0 mi NNW 12.7 mph 24.2 mph N/A   Overcast
9:37 PM 51.1 °F 46.8 °F 85% 30.04 in 10.0 mi NW 15.0 mph 20.7 mph N/A   Overcast
9:56 PM 51.1 °F 47.3 °F 87% 30.05 in 10.0 mi NW 11.5 mph 20.7 mph N/A   Overcast
10:16 PM 51.1 °F 47.1 °F 86% 30.05 in 10.0 mi NNW 10.4 mph 18.4 mph N/A   Overcast
10:36 PM 51.1 °F 47.1 °F 86% 30.05 in 10.0 mi NNW 8.1 mph 21.9 mph N/A   Overcast
10:56 PM 51.1 °F 46.9 °F 86% 30.05 in 10.0 mi NNW 12.7 mph 18.4 mph N/A   Overcast
11:16 PM 50.9 °F 46.6 °F 85% 30.05 in 10.0 mi North 12.7 mph 19.6 mph N/A   Overcast
11:36 PM 50.0 °F 46.4 °F 87% 30.06 in 10.0 mi North 9.2 mph - N/A   Overcast
11:56 PM 50.2 °F 44.4 °F 81% 30.06 in 10.0 mi NNE 9.2 mph 16.1 mph N/A   Overcast